GOES 1 (SMS-C) 1 08366U 75100A 24289.36674036 -.00000183 00000-0 00000-0 0 9999 2 08366 6.1660 285.0416 0004567 306.3855 192.1326 1.00310884178951 GOES 2 1 10061U 77048A 24289.03250170 -.00000058 00000-0 00000-0 0 9991 2 10061 7.8760 298.5940 0010549 34.3252 328.8441 0.99394534 40216 GOES 3 1 10953U 78062A 24289.69736025 -.00000087 00000-0 00000-0 0 9990 2 10953 8.2872 303.8279 0002580 249.4576 95.3511 0.99363342122470 GOES 4 1 11964U 80074A 24289.70257307 .00000039 00000-0 00000-0 0 9998 2 11964 9.3177 307.6434 0030114 96.5869 273.2291 0.99229576121390 GOES 5 1 12472U 81049A 24289.59953292 -.00000037 00000-0 00000-0 0 9998 2 12472 10.4574 319.7969 0003638 263.5520 257.6308 1.00334722116737 GOES 6 1 14050U 83041A 24289.60283436 -.00000142 00000-0 00000-0 0 9991 2 14050 11.1705 325.2997 0004373 217.3510 316.0766 1.00327236209903 GOES 7 1 17561U 87022A 24288.37305237 .00000004 00000-0 00000-0 0 9997 2 17561 13.4864 341.9729 0001315 116.3294 245.2306 0.99907223120869 GOES 8 1 23051U 94022A 24289.83874954 -.00000256 00000-0 00000-0 0 9995 2 23051 13.9062 18.1713 0002923 99.4025 340.8252 0.98906770118101 GOES 9 1 23581U 95025A 24289.65132310 .00000027 00000-0 00000-0 0 9995 2 23581 13.4176 18.8381 0008583 163.6096 152.3578 0.98797534106737 GOES 10 1 24786U 97019A 24288.96368596 -.00000040 00000-0 00000-0 0 9994 2 24786 12.4035 25.3109 0031253 218.4750 151.9703 0.99124314100027 GOES 11 1 26352U 00022A 24289.62299063 -.00000178 00000-0 00000-0 0 9991 2 26352 10.5026 52.1381 0005113 190.9323 4.7799 0.99044866 46430 GOES 12 1 26871U 01031A 24289.58827444 -.00000015 00000-0 00000-0 0 9993 2 26871 11.0673 42.1840 0004635 272.3704 124.3736 0.99138341 84721 GOES 13 1 29155U 06018A 24288.81090956 .00000001 00000-0 00000-0 0 9990 2 29155 2.9339 83.8078 0062269 256.1297 12.5766 0.98829721 37217 GOES 14 1 35491U 09033A 24289.48578719 -.00000067 00000-0 00000-0 0 9995 2 35491 0.0965 92.2158 0003802 91.9776 266.6670 1.00270073 477 GOES 15 1 36411U 10008A 24289.71646639 .00000036 00000-0 00000-0 0 9990 2 36411 0.2898 274.1373 0006654 315.1344 114.7012 1.00272219 53539 GOES 16 1 41866U 16071A 24288.17817965 -.00000250 00000-0 00000-0 0 9996 2 41866 0.0529 288.9784 0000543 338.3828 104.8196 1.00272643 28976